Time,TemperatureF,DewpointF,PressureIn,WindDirection,WindDirectionDegrees,WindSpeedMPH,WindSpeedGustMPH,Humidity,HourlyPrecipIn,Conditions,Clouds,dailyrainin,SoftwareType,DateUTC
2013-03-05 00:00:00,44.2,15.5,29.97,ENE,68,1.3,3.4,31,0.00,,OVC090,0.00,VWS V14.01,2013-03-05 05:00:00,
2013-03-05 00:05:00,44.2,15.5,29.97,ENE,68,0.0,3.4,31,0.00,,OVC090,0.00,VWS V14.01,2013-03-05 05:05:00,
2013-03-05 00:10:00,44.2,15.5,29.97,ENE,68,0.0,3.4,31,0.00,,OVC090,0.00,VWS V14.01,2013-03-05 05:10:00,
2013-03-05 00:15:00,44.2,15.5,29.97,ENE,68,0.0,3.4,31,0.00,,OVC090,0.00,VWS V14.01,2013-03-05 05:15:00,
2013-03-05 00:20:00,44.2,15.5,29.97,ESE,112,0.0,3.4,31,0.00,,OVC070,0.00,VWS V14.01,2013-03-05 05:20:00,
2013-03-05 00:25:00,44.2,15.5,29.97,ENE,68,4.0,4.0,31,0.00,,OVC070,0.00,VWS V14.01,2013-03-05 05:25:00,
2013-03-05 00:30:00,44.2,15.5,29.97,East,90,0.0,4.0,31,0.00,,OVC070,0.00,VWS V14.01,2013-03-05 05:30:00,
2013-03-05 00:35:00,44.2,15.5,29.94,ENE,68,2.2,4.0,31,0.00,,OVC070,0.00,VWS V14.01,2013-03-05 05:35:00,
2013-03-05 00:40:00,44.4,15.7,29.94,ENE,68,1.1,4.0,31,0.00,,OVC070,0.00,VWS V14.01,2013-03-05 05:40:00,
2013-03-05 00:45:00,44.6,15.9,29.94,ENE,68,0.0,4.0,31,0.00,,OVC070,0.00,VWS V14.01,2013-03-05 05:45:00,
2013-03-05 00:50:00,44.6,15.9,29.97,ENE,68,0.0,4.0,31,0.00,,OVC070,0.00,VWS V14.01,2013-03-05 05:50:00,
2013-03-05 00:55:00,44.6,15.9,29.97,ENE,68,1.1,1.1,31,0.00,,OVC070,0.00,VWS V14.01,2013-03-05 05:55:00,
2013-03-05 01:00:00,44.6,15.9,29.97,ENE,68,0.0,2.5,31,0.00,,OVC070,0.00,VWS V14.01,2013-03-05 06:00:00,
2013-03-05 01:05:00,44.6,15.9,29.97,NNE,22,0.0,2.5,31,0.00,,OVC070,0.00,VWS V14.01,2013-03-05 06:05:00,
2013-03-05 01:10:00,44.6,15.9,29.97,East,90,0.0,2.5,31,0.00,,OVC070,0.00,VWS V14.01,2013-03-05 06:10:00,
2013-03-05 01:15:00,44.6,15.9,29.97,ENE,68,0.0,2.5,31,0.00,,OVC070,0.00,VWS V14.01,2013-03-05 06:15:00,
2013-03-05 01:20:00,44.6,15.9,29.97,SSE,158,0.0,2.5,31,0.00,,OVC070,0.00,VWS V14.01,2013-03-05 06:20:00,
2013-03-05 01:25:00,44.8,16.0,29.97,ENE,68,1.6,2.5,31,0.00,,OVC070,0.00,VWS V14.01,2013-03-05 06:25:00,
2013-03-05 01:30:00,44.8,16.0,29.97,ENE,68,0.0,2.7,31,0.00,,OVC070,0.00,VWS V14.01,2013-03-05 06:30:00,
2013-03-05 01:35:00,44.8,16.0,29.94,ENE,68,0.0,3.1,31,0.00,,OVC070,0.00,VWS V14.01,2013-03-05 06:35:00,
2013-03-05 01:40:00,44.8,16.0,29.94,ENE,68,0.0,3.1,31,0.00,,OVC070,0.00,VWS V14.01,2013-03-05 06:40:00,
2013-03-05 01:45:00,44.6,15.9,29.94,SSE,158,0.0,3.1,31,0.00,,OVC070,0.00,VWS V14.01,2013-03-05 06:45:00,
2013-03-05 01:50:00,44.8,16.0,29.97,ENE,68,0.0,3.1,31,0.00,,OVC070,0.00,VWS V14.01,2013-03-05 06:50:00,
2013-03-05 01:55:00,44.6,16.6,29.97,ENE,68,0.0,1.3,32,0.00,,OVC070,0.00,VWS V14.01,2013-03-05 06:55:00,
2013-03-05 02:00:00,44.8,16.7,29.97,ENE,68,0.0,2.2,32,0.00,,OVC070,0.00,VWS V14.01,2013-03-05 07:00:00,
2013-03-05 02:05:00,44.8,16.7,29.94,East,90,1.1,2.2,32,0.00,,OVC070,0.00,VWS V14.01,2013-03-05 07:05:00,
2013-03-05 02:10:00,44.8,16.7,29.94,ENE,68,1.6,2.9,32,0.00,,OVC070,0.00,VWS V14.01,2013-03-05 07:10:00,
2013-03-05 02:15:00,44.8,16.7,29.94,ENE,68,2.9,2.9,32,0.00,,OVC070,0.00,VWS V14.01,2013-03-05 07:15:00,
2013-03-05 02:20:00,45.0,16.9,29.94,ENE,68,2.5,2.9,32,0.00,,OVC070,0.00,VWS V14.01,2013-03-05 07:20:00,
2013-03-05 02:25:00,45.0,16.9,29.94,ENE,68,2.5,3.1,32,0.00,,OVC070,0.00,VWS V14.01,2013-03-05 07:25:00,
2013-03-05 02:30:00,45.0,16.9,29.94,ENE,68,1.6,3.1,32,0.00,,OVC070,0.00,VWS V14.01,2013-03-05 07:30:00,
2013-03-05 02:35:00,45.0,16.9,29.94,NNW,338,1.6,3.1,32,0.00,,OVC065,0.00,VWS V14.01,2013-03-05 07:35:00,
2013-03-05 02:40:00,45.0,16.9,29.94,ENE,68,0.0,3.1,32,0.00,,OVC065,0.00,VWS V14.01,2013-03-05 07:40:00,
2013-03-05 02:45:00,45.0,16.9,29.94,ENE,68,1.6,3.1,32,0.00,,OVC065,0.00,VWS V14.01,2013-03-05 07:45:00,
2013-03-05 02:50:00,45.0,16.9,29.94,NE,45,0.0,3.1,32,0.00,,OVC065,0.00,VWS V14.01,2013-03-05 07:50:00,
2013-03-05 02:55:00,45.1,17.8,29.94,ENE,68,0.0,1.3,33,0.00,,OVC065,0.00,VWS V14.01,2013-03-05 07:55:00,
2013-03-05 03:00:00,45.0,17.6,29.94,ENE,68,0.0,2.0,33,0.00,,OVC065,0.00,VWS V14.01,2013-03-05 08:00:00,
2013-03-05 03:05:00,45.0,17.6,29.91,ENE,68,0.0,2.5,33,0.00,,OVC065,0.00,VWS V14.01,2013-03-05 08:05:00,
2013-03-05 03:10:00,45.0,17.6,29.91,ENE,68,1.1,2.5,33,0.00,,OVC065,0.00,VWS V14.01,2013-03-05 08:10:00,
2013-03-05 03:15:00,45.0,17.6,29.91,ENE,68,2.7,2.7,33,0.00,,OVC065,0.00,VWS V14.01,2013-03-05 08:15:00,
2013-03-05 03:20:00,45.0,17.6,29.91,ENE,68,1.3,2.7,33,0.00,,OVC065,0.00,VWS V14.01,2013-03-05 08:20:00,
2013-03-05 03:25:00,45.0,18.3,29.91,NNW,338,0.0,2.7,34,0.00,,OVC065,0.00,VWS V14.01,2013-03-05 08:25:00,
2013-03-05 03:30:00,44.8,18.1,29.91,NNW,338,0.0,2.7,34,0.00,,OVC065,0.00,VWS V14.01,2013-03-05 08:30:00,
2013-03-05 03:35:00,44.8,18.1,29.88,ENE,68,1.6,2.7,34,0.00,,OVC065,0.00,VWS V14.01,2013-03-05 08:35:00,
2013-03-05 03:40:00,44.8,18.8,29.88,NNE,22,1.1,2.7,35,0.00,,OVC065,0.00,VWS V14.01,2013-03-05 08:40:00,
2013-03-05 03:45:00,44.8,18.8,29.88,NNE,22,0.0,2.7,35,0.00,,OVC065,0.00,VWS V14.01,2013-03-05 08:45:00,
2013-03-05 03:50:00,44.6,18.7,29.91,NNE,22,0.0,2.7,35,0.00,,OVC065,0.00,VWS V14.01,2013-03-05 08:50:00,
2013-03-05 03:55:00,44.6,19.3,29.91,NNE,22,0.0,0.0,36,0.00,,OVC065,0.00,VWS V14.01,2013-03-05 08:55:00,
2013-03-05 04:00:00,44.6,19.3,29.91,NNE,22,0.0,0.0,36,0.00,,OVC065,0.00,VWS V14.01,2013-03-05 09:00:00,
2013-03-05 04:05:00,44.6,20.0,29.91,NNE,22,0.0,0.0,37,0.00,,OVC065,0.00,VWS V14.01,2013-03-05 09:05:00,
2013-03-05 04:10:00,44.4,20.4,29.91,NNE,22,0.0,0.0,38,0.00,,OVC065,0.00,VWS V14.01,2013-03-05 09:10:00,
2013-03-05 04:15:00,44.4,20.4,29.91,NNE,22,0.0,0.0,38,0.00,,OVC065,0.00,VWS V14.01,2013-03-05 09:15:00,
2013-03-05 04:20:00,44.2,20.3,29.91,NNE,22,0.0,0.0,38,0.00,,OVC065,0.00,VWS V14.01,2013-03-05 09:20:00,
2013-03-05 04:25:00,44.1,21.3,29.91,NNE,22,0.0,0.0,40,0.00,,OVC065,0.00,VWS V14.01,2013-03-05 09:25:00,
2013-03-05 04:30:00,44.1,21.9,29.91,SE,135,0.0,2.5,41,0.00,,OVC065,0.00,VWS V14.01,2013-03-05 09:30:00,
2013-03-05 04:35:00,43.7,21.6,29.91,SSE,158,0.0,2.5,41,0.00,,-RA,0.00,VWS V14.01,2013-03-05 09:35:00,
2013-03-05 04:40:00,43.5,23.1,29.91,SSE,158,0.0,2.5,44,0.00,,-RA,0.00,VWS V14.01,2013-03-05 09:40:00,
2013-03-05 04:45:00,43.3,24.0,29.91,SSE,158,0.0,2.5,46,0.00,,-RA,0.00,VWS V14.01,2013-03-05 09:45:00,
2013-03-05 04:50:00,43.2,24.3,29.91,SSE,158,0.0,2.5,47,0.00,,-RA,0.00,VWS V14.01,2013-03-05 09:50:00,
2013-03-05 04:55:00,43.0,24.6,29.91,ENE,68,0.0,0.0,48,0.00,,-RA,0.00,VWS V14.01,2013-03-05 09:55:00,
2013-03-05 05:00:00,42.8,25.0,29.91,East,90,0.0,1.1,49,0.00,,-RA,0.00,VWS V14.01,2013-03-05 10:00:00,
2013-03-05 05:05:00,42.6,25.3,29.88,ENE,68,0.0,1.1,50,0.00,,-RA,0.00,VWS V14.01,2013-03-05 10:05:00,
2013-03-05 05:10:00,42.4,25.6,29.88,ENE,68,0.0,2.2,51,0.00,,-RA,0.00,VWS V14.01,2013-03-05 10:10:00,
2013-03-05 05:15:00,42.3,25.9,29.88,ENE,68,0.0,2.2,52,0.00,,-RA,0.00,VWS V14.01,2013-03-05 10:15:00,
2013-03-05 05:20:00,42.3,26.4,29.91,SSE,158,0.0,2.2,53,0.00,,-RA,0.00,VWS V14.01,2013-03-05 10:20:00,
2013-03-05 05:25:00,42.1,26.6,29.91,East,90,0.0,2.2,54,0.00,,-RA,0.00,VWS V14.01,2013-03-05 10:25:00,
2013-03-05 05:30:00,42.1,27.1,29.91,ENE,68,0.0,2.2,55,0.00,,-RA,0.00,VWS V14.01,2013-03-05 10:30:00,
2013-03-05 05:35:00,42.1,27.5,29.91,ENE,68,0.0,2.2,56,0.00,,-RA,0.00,VWS V14.01,2013-03-05 10:35:00,
2013-03-05 05:40:00,41.9,27.4,29.91,SSE,158,0.0,2.2,56,0.00,,-RA,0.00,VWS V14.01,2013-03-05 10:40:00,
2013-03-05 05:45:00,41.7,28.5,29.91,ESE,112,0.0,2.2,59,0.00,,-RA,0.00,VWS V14.01,2013-03-05 10:45:00,
2013-03-05 05:50:00,41.7,28.0,29.91,SSE,158,0.0,2.2,58,0.00,,-RA,0.00,VWS V14.01,2013-03-05 10:50:00,
2013-03-05 05:55:00,41.5,28.7,29.91,SE,135,0.0,2.9,60,0.00,,-RA,0.00,VWS V14.01,2013-03-05 10:55:00,
2013-03-05 06:00:00,41.5,28.3,29.91,ESE,112,0.0,2.9,59,0.00,,-RA,0.00,VWS V14.01,2013-03-05 11:00:00,
2013-03-05 06:05:00,41.5,29.1,29.91,East,90,0.0,572.8,61,0.00,,OVC037,0.00,VWS V14.01,2013-03-05 11:05:00,
2013-03-05 06:10:00,41.5,29.5,29.91,ENE,68,0.0,572.8,62,0.00,,OVC037,0.00,VWS V14.01,2013-03-05 11:10:00,
2013-03-05 06:15:00,41.5,29.5,29.91,SE,135,0.0,572.8,62,0.00,,OVC037,0.00,VWS V14.01,2013-03-05 11:15:00,
2013-03-05 06:20:00,41.5,29.9,29.91,SE,135,0.0,572.8,63,0.00,,OVC037,0.00,VWS V14.01,2013-03-05 11:20:00,
2013-03-05 06:25:00,41.5,29.5,29.91,SE,135,0.0,572.8,62,0.00,,OVC037,0.00,VWS V14.01,2013-03-05 11:25:00,
2013-03-05 06:30:00,41.5,29.9,29.91,ESE,112,0.0,572.8,63,0.00,,OVC037,0.00,VWS V14.01,2013-03-05 11:30:00,
2013-03-05 06:35:00,41.5,30.7,29.91,ESE,112,0.0,572.8,65,0.00,,-RA,0.00,VWS V14.01,2013-03-05 11:35:00,
2013-03-05 06:40:00,41.5,31.0,29.91,SE,135,0.0,572.8,66,0.00,,-RA,0.00,VWS V14.01,2013-03-05 11:40:00,
2013-03-05 06:45:00,41.5,31.4,29.91,SE,135,0.0,572.8,67,0.00,,-RA,0.00,VWS V14.01,2013-03-05 11:45:00,
2013-03-05 06:50:00,41.5,31.4,29.88,ESE,112,1.1,572.8,67,0.00,,-RA,0.00,VWS V14.01,2013-03-05 11:50:00,
2013-03-05 06:55:00,41.5,31.8,29.88,ESE,112,0.0,0.0,68,0.00,,-RA,0.00,VWS V14.01,2013-03-05 11:55:00,
2013-03-05 07:00:00,41.5,32.1,29.88,SSE,158,0.0,2.2,69,0.00,,-RA,0.00,VWS V14.01,2013-03-05 12:00:00,
2013-03-05 07:05:00,41.5,32.5,29.88,ESE,112,1.3,3.1,70,0.00,,OVC027,0.00,VWS V14.01,2013-03-05 12:05:00,
2013-03-05 07:10:00,41.4,32.3,29.88,SSE,158,2.2,3.1,70,0.00,,OVC027,0.00,VWS V14.01,2013-03-05 12:10:00,
2013-03-05 07:15:00,41.4,33.0,29.88,SSE,158,2.5,3.1,72,0.00,,OVC027,0.00,VWS V14.01,2013-03-05 12:15:00,
2013-03-05 07:20:00,41.4,33.0,29.91,ESE,112,0.9,3.1,72,0.00,,OVC027,0.00,VWS V14.01,2013-03-05 12:20:00,
2013-03-05 07:25:00,41.5,33.5,29.91,ESE,112,0.0,3.1,73,0.00,,OVC027,0.00,VWS V14.01,2013-03-05 12:25:00,
2013-03-05 07:30:00,41.5,33.5,29.91,SSE,158,0.0,3.1,73,0.00,,OVC027,0.00,VWS V14.01,2013-03-05 12:30:00,
2013-03-05 07:35:00,41.5,33.5,29.91,ESE,112,0.0,3.1,73,0.00,,,0.00,VWS V14.01,2013-03-05 12:35:00,
2013-03-05 07:40:00,41.7,33.7,29.91,ESE,112,0.0,3.1,73,0.00,,,0.00,VWS V14.01,2013-03-05 12:40:00,
2013-03-05 07:45:00,41.7,34.1,29.91,ESE,112,0.0,3.1,74,0.00,,,0.00,VWS V14.01,2013-03-05 12:45:00,
2013-03-05 07:50:00,41.9,34.2,29.91,East,90,0.0,3.1,74,0.00,,,0.00,VWS V14.01,2013-03-05 12:50:00,
2013-03-05 07:55:00,41.9,34.6,29.91,East,90,0.0,630.1,75,0.00,,,0.00,VWS V14.01,2013-03-05 12:55:00,
2013-03-05 08:00:00,42.1,34.7,29.91,East,90,0.0,630.1,75,0.05,,,0.05,VWS V14.01,2013-03-05 13:00:00,
2013-03-05 08:05:00,42.1,35.1,29.88,SSE,158,0.0,630.1,76,0.05,,,0.05,VWS V14.01,2013-03-05 13:05:00,
2013-03-05 08:10:00,42.1,35.4,29.88,ESE,112,0.0,630.1,77,0.05,,,0.05,VWS V14.01,2013-03-05 13:10:00,
2013-03-05 08:15:00,42.1,35.7,29.88,SE,135,0.0,630.1,78,0.05,,,0.05,VWS V14.01,2013-03-05 13:15:00,
2013-03-05 08:20:00,42.3,36.2,29.85,SE,135,0.0,630.1,79,0.05,,,0.05,VWS V14.01,2013-03-05 13:20:00,
2013-03-05 08:25:00,42.3,36.5,29.85,East,90,0.0,630.1,80,0.05,,,0.05,VWS V14.01,2013-03-05 13:25:00,
2013-03-05 08:30:00,42.4,37.0,29.85,SSE,158,0.0,630.1,81,0.05,,,0.05,VWS V14.01,2013-03-05 13:30:00,
2013-03-05 08:35:00,42.4,37.0,29.85,ESE,112,0.0,630.1,81,0.05,,,0.05,VWS V14.01,2013-03-05 13:35:00,
2013-03-05 08:40:00,42.6,37.2,29.85,SSE,158,0.0,630.1,81,0.05,,,0.05,VWS V14.01,2013-03-05 13:40:00,
2013-03-05 08:45:00,42.6,37.5,29.85,ESE,112,0.0,630.1,82,0.05,,,0.05,VWS V14.01,2013-03-05 13:45:00,
2013-03-05 08:50:00,42.8,37.7,29.85,SE,135,0.0,630.1,82,0.05,,,0.05,VWS V14.01,2013-03-05 13:50:00,
2013-03-05 08:55:00,42.8,37.7,29.85,South,180,0.0,0.0,82,0.05,,,0.05,VWS V14.01,2013-03-05 13:55:00,
2013-03-05 09:00:00,43.0,37.9,29.85,SE,135,0.0,0.0,82,0.05,,,0.05,VWS V14.01,2013-03-05 14:00:00,
2013-03-05 09:05:00,43.0,37.9,29.85,NNE,22,0.0,0.0,82,0.05,,,0.05,VWS V14.01,2013-03-05 14:05:00,
2013-03-05 09:10:00,43.0,38.2,29.85,ESE,112,0.0,0.0,83,0.05,,,0.05,VWS V14.01,2013-03-05 14:10:00,
2013-03-05 09:15:00,43.2,38.4,29.85,ESE,112,0.0,0.0,83,0.05,,,0.05,VWS V14.01,2013-03-05 14:15:00,
2013-03-05 09:20:00,43.2,38.4,29.85,ESE,112,0.0,0.0,83,0.05,,,0.05,VWS V14.01,2013-03-05 14:20:00,
2013-03-05 09:25:00,43.3,38.8,29.85,ESE,112,0.0,0.0,84,0.05,,,0.05,VWS V14.01,2013-03-05 14:25:00,
2013-03-05 09:30:00,43.5,39.0,29.85,East,90,0.0,0.0,84,0.05,,,0.05,VWS V14.01,2013-03-05 14:30:00,
2013-03-05 09:35:00,43.5,39.0,29.85,East,90,0.0,0.0,84,0.05,,,0.05,VWS V14.01,2013-03-05 14:35:00,
2013-03-05 09:40:00,43.5,39.3,29.85,East,90,0.0,0.0,85,0.05,,,0.05,VWS V14.01,2013-03-05 14:40:00,
2013-03-05 09:45:00,43.7,39.5,29.85,East,90,0.0,0.0,85,0.05,,,0.05,VWS V14.01,2013-03-05 14:45:00,
2013-03-05 09:50:00,43.7,39.8,29.85,East,90,0.0,0.0,86,0.05,,,0.05,VWS V14.01,2013-03-05 14:50:00,
2013-03-05 09:55:00,43.9,40.0,29.85,East,90,0.0,0.0,86,0.00,,,0.05,VWS V14.01,2013-03-05 14:55:00,
2013-03-05 10:00:00,44.1,40.5,29.85,ESE,112,0.0,0.0,87,0.00,,,0.05,VWS V14.01,2013-03-05 15:00:00,
2013-03-05 10:05:00,44.2,40.6,29.85,SSE,158,0.0,0.0,87,0.00,,,0.05,VWS V14.01,2013-03-05 15:05:00,
2013-03-05 10:10:00,44.4,40.8,29.85,ESE,112,0.0,0.0,87,0.00,,,0.05,VWS V14.01,2013-03-05 15:10:00,
2013-03-05 10:15:00,44.6,41.0,29.85,SE,135,0.0,0.0,87,0.00,,,0.05,VWS V14.01,2013-03-05 15:15:00,
2013-03-05 10:20:00,44.6,41.0,29.85,East,90,0.0,0.0,87,0.03,,,0.08,VWS V14.01,2013-03-05 15:20:00,
2013-03-05 10:25:00,44.8,41.2,29.82,SE,135,0.0,0.0,87,0.03,,,0.08,VWS V14.01,2013-03-05 15:25:00,
2013-03-05 10:30:00,45.0,41.3,29.82,SSE,158,0.0,0.0,87,0.03,,,0.08,VWS V14.01,2013-03-05 15:30:00,
2013-03-05 10:35:00,45.0,41.6,29.82,SE,135,0.0,0.0,88,0.03,,,0.08,VWS V14.01,2013-03-05 15:35:00,
2013-03-05 10:40:00,45.1,41.8,29.82,SSE,158,0.0,0.0,88,0.03,,,0.08,VWS V14.01,2013-03-05 15:40:00,
2013-03-05 10:45:00,45.3,41.7,29.82,SE,135,0.0,0.0,87,0.03,,,0.08,VWS V14.01,2013-03-05 15:45:00,
2013-03-05 10:50:00,45.3,42.0,29.79,ESE,112,0.0,1.3,88,0.03,,,0.08,VWS V14.01,2013-03-05 15:50:00,
2013-03-05 10:55:00,45.5,42.5,29.79,ESE,112,0.0,0.0,89,0.03,,,0.08,VWS V14.01,2013-03-05 15:55:00,
2013-03-05 11:00:00,45.7,42.6,29.79,SE,135,0.0,0.0,89,0.03,,,0.08,VWS V14.01,2013-03-05 16:00:00,
2013-03-05 11:05:00,45.9,42.8,29.79,ESE,112,0.0,0.0,89,0.03,,,0.08,VWS V14.01,2013-03-05 16:05:00,
2013-03-05 11:10:00,46.0,43.0,29.79,ESE,112,0.0,1.6,89,0.03,,,0.08,VWS V14.01,2013-03-05 16:10:00,
2013-03-05 11:15:00,46.0,43.0,29.79,ESE,112,2.7,2.7,89,0.03,,,0.08,VWS V14.01,2013-03-05 16:15:00,
2013-03-05 11:20:00,46.0,43.0,29.79,SE,135,0.0,2.7,89,0.03,,,0.08,VWS V14.01,2013-03-05 16:20:00,
2013-03-05 11:25:00,46.2,43.2,29.79,SE,135,0.0,3.4,89,0.03,,,0.08,VWS V14.01,2013-03-05 16:25:00,
2013-03-05 11:30:00,46.2,43.5,29.79,SSE,158,0.0,3.4,90,0.03,,,0.08,VWS V14.01,2013-03-05 16:30:00,
2013-03-05 11:35:00,46.4,43.3,29.79,SSE,158,0.0,3.4,89,0.03,,,0.08,VWS V14.01,2013-03-05 16:35:00,
2013-03-05 11:40:00,46.6,43.5,29.79,SSE,158,0.0,3.4,89,0.03,,,0.08,VWS V14.01,2013-03-05 16:40:00,
2013-03-05 11:45:00,46.8,43.7,29.79,SSE,158,0.0,3.4,89,0.03,,,0.08,VWS V14.01,2013-03-05 16:45:00,
2013-03-05 11:50:00,46.8,43.7,29.79,SSE,158,0.0,3.4,89,0.03,,,0.08,VWS V14.01,2013-03-05 16:50:00,
2013-03-05 11:55:00,46.9,44.2,29.79,SSE,158,0.0,0.0,90,0.00,,,0.08,VWS V14.01,2013-03-05 16:55:00,
2013-03-05 12:00:00,47.1,44.3,29.79,SSE,158,0.0,0.0,90,0.00,,,0.08,VWS V14.01,2013-03-05 17:00:00,
2013-03-05 12:05:00,47.1,44.0,29.79,SSW,202,0.0,0.0,89,0.00,,,0.08,VWS V14.01,2013-03-05 17:05:00,
2013-03-05 12:10:00,47.3,44.5,29.79,ESE,112,0.0,2.9,90,0.00,,,0.08,VWS V14.01,2013-03-05 17:10:00,
2013-03-05 12:15:00,47.3,44.2,29.79,SE,135,0.0,2.9,89,0.00,,,0.08,VWS V14.01,2013-03-05 17:15:00,
2013-03-05 12:20:00,47.5,44.4,29.76,SE,135,0.0,2.9,89,0.00,,-RA,0.08,VWS V14.01,2013-03-05 17:20:00,
2013-03-05 12:25:00,47.7,44.6,29.76,SSE,158,0.0,2.9,89,0.00,,-RA,0.08,VWS V14.01,2013-03-05 17:25:00,
2013-03-05 12:30:00,47.8,44.8,29.76,SE,135,0.0,2.9,89,0.00,,-RA,0.08,VWS V14.01,2013-03-05 17:30:00,
2013-03-05 12:35:00,47.8,44.8,29.74,SE,135,0.0,2.9,89,0.00,,-RA,0.08,VWS V14.01,2013-03-05 17:35:00,
2013-03-05 12:40:00,48.0,45.2,29.74,SE,135,0.0,2.9,90,0.00,,-RA,0.08,VWS V14.01,2013-03-05 17:40:00,
2013-03-05 12:45:00,48.2,45.1,29.74,SSE,158,0.0,2.9,89,0.00,,-RA,0.08,VWS V14.01,2013-03-05 17:45:00,
2013-03-05 12:50:00,48.2,45.1,29.74,SE,135,0.0,2.9,89,0.00,,-RA,0.08,VWS V14.01,2013-03-05 17:50:00,
2013-03-05 12:55:00,48.0,44.6,29.74,SE,135,0.0,0.0,88,0.00,,-RA,0.08,VWS V14.01,2013-03-05 17:55:00,
2013-03-05 13:00:00,48.0,44.3,29.74,ESE,112,0.0,0.0,87,0.00,,-RA,0.08,VWS V14.01,2013-03-05 18:00:00,
2013-03-05 13:05:00,48.0,44.6,29.74,ESE,112,0.0,0.0,88,0.00,,-RA,0.08,VWS V14.01,2013-03-05 18:05:00,
2013-03-05 13:10:00,48.0,44.3,29.74,East,90,0.0,0.0,87,0.00,,-RA,0.08,VWS V14.01,2013-03-05 18:10:00,
2013-03-05 13:15:00,48.0,44.6,29.74,SE,135,0.0,0.0,88,0.00,,-RA,0.08,VWS V14.01,2013-03-05 18:15:00,
2013-03-05 13:20:00,48.0,44.9,29.76,SE,135,0.0,0.0,89,0.00,,-RA,0.08,VWS V14.01,2013-03-05 18:20:00,
2013-03-05 13:25:00,48.0,44.9,29.76,SSE,158,0.0,0.0,89,0.00,,-RA,0.08,VWS V14.01,2013-03-05 18:25:00,
2013-03-05 13:30:00,48.0,44.9,29.76,SSE,158,0.0,0.0,89,0.00,,-RA,0.08,VWS V14.01,2013-03-05 18:30:00,
2013-03-05 13:35:00,48.0,44.9,29.74,SSE,158,0.0,0.0,89,0.00,,-RA,0.08,VWS V14.01,2013-03-05 18:35:00,
2013-03-05 13:40:00,48.2,45.1,29.74,SSE,158,0.0,0.0,89,0.00,,-RA,0.08,VWS V14.01,2013-03-05 18:40:00,
2013-03-05 13:45:00,48.2,45.1,29.74,SSE,158,0.0,0.0,89,0.00,,-RA,0.08,VWS V14.01,2013-03-05 18:45:00,
2013-03-05 13:50:00,48.2,45.1,29.74,SSE,158,0.0,0.0,89,0.00,,-RA,0.08,VWS V14.01,2013-03-05 18:50:00,
2013-03-05 13:55:00,48.4,45.3,29.74,SSE,158,0.0,0.0,89,0.00,,-RA,0.08,VWS V14.01,2013-03-05 18:55:00,
2013-03-05 14:00:00,48.4,45.3,29.74,West,270,0.0,0.0,89,0.00,,-RA,0.08,VWS V14.01,2013-03-05 19:00:00,
2013-03-05 14:05:00,48.4,45.0,29.71,West,270,0.0,0.0,88,0.00,,-RA,0.08,VWS V14.01,2013-03-05 19:05:00,
2013-03-05 14:10:00,48.4,45.0,29.71,NW,315,0.0,0.0,88,0.00,,-RA,0.08,VWS V14.01,2013-03-05 19:10:00,
2013-03-05 14:15:00,48.2,44.5,29.71,NW,315,0.0,0.0,87,0.00,,-RA,0.08,VWS V14.01,2013-03-05 19:15:00,
2013-03-05 14:20:00,48.2,44.5,29.68,NNW,338,0.0,0.0,87,0.00,,-RA,0.08,VWS V14.01,2013-03-05 19:20:00,
2013-03-05 14:25:00,48.0,44.3,29.68,NNW,338,0.0,0.0,87,0.05,,-RA,0.13,VWS V14.01,2013-03-05 19:25:00,
2013-03-05 14:30:00,47.8,44.2,29.68,WNW,292,0.0,0.0,87,0.05,,-RA,0.13,VWS V14.01,2013-03-05 19:30:00,
2013-03-05 14:35:00,47.8,44.5,29.68,NNW,338,0.0,0.0,88,0.05,,-RA,0.13,VWS V14.01,2013-03-05 19:35:00,
2013-03-05 14:40:00,47.7,44.3,29.68,NNW,338,2.0,3.8,88,0.05,,-RA,0.13,VWS V14.01,2013-03-05 19:40:00,
2013-03-05 14:45:00,47.7,44.6,29.68,NNW,338,0.0,3.8,89,0.05,,-RA,0.13,VWS V14.01,2013-03-05 19:45:00,
2013-03-05 14:50:00,47.7,44.6,29.68,WNW,292,0.0,3.8,89,0.05,,-RA,0.13,VWS V14.01,2013-03-05 19:50:00,
2013-03-05 14:55:00,47.7,44.9,29.68,NW,315,0.0,0.0,90,0.05,,-RA,0.13,VWS V14.01,2013-03-05 19:55:00,
2013-03-05 15:00:00,47.7,44.9,29.68,WNW,292,0.0,0.0,90,0.05,,-RA,0.13,VWS V14.01,2013-03-05 20:00:00,
2013-03-05 15:05:00,47.7,44.9,29.68,NNW,338,0.0,0.0,90,0.05,,-RA,0.13,VWS V14.01,2013-03-05 20:05:00,
2013-03-05 15:10:00,47.7,44.9,29.68,WNW,292,0.0,0.0,90,0.09,,-RA,0.17,VWS V14.01,2013-03-05 20:10:00,
2013-03-05 15:15:00,47.5,44.7,29.68,NNW,338,0.0,0.0,90,0.09,,-RA,0.17,VWS V14.01,2013-03-05 20:15:00,
2013-03-05 15:20:00,47.5,44.7,29.68,WNW,292,0.0,0.0,90,0.09,,-RA,0.17,VWS V14.01,2013-03-05 20:20:00,
2013-03-05 15:25:00,47.3,44.5,29.68,NW,315,0.0,0.0,90,0.09,,-RA,0.17,VWS V14.01,2013-03-05 20:25:00,
2013-03-05 15:30:00,47.3,44.5,29.68,WNW,292,0.0,0.0,90,0.09,,-RA,0.17,VWS V14.01,2013-03-05 20:30:00,
2013-03-05 15:35:00,47.3,44.5,29.68,WNW,292,0.0,0.0,90,0.09,,-RA,0.17,VWS V14.01,2013-03-05 20:35:00,
2013-03-05 15:40:00,47.3,44.8,29.68,WNW,292,0.0,0.0,91,0.09,,-RA,0.17,VWS V14.01,2013-03-05 20:40:00,
2013-03-05 15:45:00,47.1,44.6,29.68,West,270,0.0,0.0,91,0.09,,-RA,0.17,VWS V14.01,2013-03-05 20:45:00,
2013-03-05 15:50:00,47.1,44.6,29.68,SW,225,3.1,8.5,91,0.09,,-RA,0.17,VWS V14.01,2013-03-05 20:50:00,
2013-03-05 15:55:00,47.1,44.9,29.68,WNW,292,7.8,8.1,92,0.04,,-RA,0.17,VWS V14.01,2013-03-05 20:55:00,
2013-03-05 16:00:00,46.9,44.5,29.68,West,270,4.7,8.1,91,0.04,,-RA,0.17,VWS V14.01,2013-03-05 21:00:00,
2013-03-05 16:05:00,46.6,43.8,29.68,West,270,1.6,8.1,90,0.04,,-RA,0.17,VWS V14.01,2013-03-05 21:05:00,
2013-03-05 16:10:00,46.4,43.0,29.68,West,270,3.6,8.1,88,0.08,,-RA,0.21,VWS V14.01,2013-03-05 21:10:00,
2013-03-05 16:15:00,46.0,42.4,29.68,WNW,292,4.3,8.1,87,0.08,,-RA,0.21,VWS V14.01,2013-03-05 21:15:00,
2013-03-05 16:20:00,45.1,39.7,29.74,WNW,292,8.5,10.5,81,0.08,,RA,0.21,VWS V14.01,2013-03-05 21:20:00,
2013-03-05 16:25:00,44.1,37.3,29.74,WNW,292,3.6,13.9,77,0.08,,RA,0.21,VWS V14.01,2013-03-05 21:25:00,
2013-03-05 16:30:00,43.5,36.8,29.74,NNW,338,9.6,13.9,77,0.08,,RA,0.21,VWS V14.01,2013-03-05 21:30:00,
2013-03-05 16:35:00,42.3,34.6,29.74,WNW,292,3.1,13.9,74,0.08,,RA,0.21,VWS V14.01,2013-03-05 21:35:00,
2013-03-05 16:40:00,41.2,33.5,29.74,NNE,22,5.8,13.9,74,0.08,,RA,0.21,VWS V14.01,2013-03-05 21:40:00,
2013-03-05 16:45:00,40.1,32.8,29.74,WNW,292,2.9,13.9,75,0.12,,RA,0.25,VWS V14.01,2013-03-05 21:45:00,
2013-03-05 16:50:00,39.2,32.0,29.74,WNW,292,3.6,13.9,75,0.12,,,0.25,VWS V14.01,2013-03-05 21:50:00,
2013-03-05 16:55:00,38.5,31.9,29.74,WNW,292,3.6,3.6,77,0.08,,,0.25,VWS V14.01,2013-03-05 21:55:00,
2013-03-05 17:00:00,38.1,31.9,29.74,WNW,292,6.0,8.5,78,0.08,,,0.25,VWS V14.01,2013-03-05 22:00:00,
2013-03-05 17:05:00,37.6,32.0,29.76,West,270,4.9,11.0,80,0.08,,,0.25,VWS V14.01,2013-03-05 22:05:00,
2013-03-05 17:10:00,37.6,32.3,29.76,WNW,292,2.9,11.0,81,0.08,,,0.25,VWS V14.01,2013-03-05 22:10:00,
2013-03-05 17:15:00,37.0,32.1,29.76,West,270,3.6,11.0,82,0.08,,,0.25,VWS V14.01,2013-03-05 22:15:00,
2013-03-05 17:20:00,36.7,32.0,29.76,WNW,292,3.1,11.0,83,0.08,,,0.25,VWS V14.01,2013-03-05 22:20:00,
2013-03-05 17:25:00,36.5,31.8,29.76,West,270,3.4,11.0,83,0.08,,,0.25,VWS V14.01,2013-03-05 22:25:00,
2013-03-05 17:30:00,36.3,32.0,29.76,West,270,3.8,11.0,84,0.08,,,0.25,VWS V14.01,2013-03-05 22:30:00,
2013-03-05 17:35:00,36.1,32.1,29.79,WNW,292,3.8,11.0,85,0.08,,,0.25,VWS V14.01,2013-03-05 22:35:00,
2013-03-05 17:40:00,36.0,31.9,29.79,West,270,2.7,11.0,85,0.08,,,0.25,VWS V14.01,2013-03-05 22:40:00,
2013-03-05 17:45:00,36.0,32.2,29.79,West,270,4.0,11.0,86,0.08,,,0.25,VWS V14.01,2013-03-05 22:45:00,
2013-03-05 17:50:00,35.8,32.0,29.79,NNW,338,3.8,11.0,86,0.08,,,0.25,VWS V14.01,2013-03-05 22:50:00,
2013-03-05 17:55:00,35.6,32.1,29.76,WSW,248,5.8,6.0,87,0.00,,,0.25,VWS V14.01,2013-03-05 22:55:00,
2013-03-05 18:00:00,35.6,32.1,29.76,WNW,292,3.8,6.0,87,0.00,,,0.25,VWS V14.01,2013-03-05 23:00:00,
2013-03-05 18:05:00,35.4,32.2,29.79,WNW,292,8.1,8.1,88,0.00,,,0.25,VWS V14.01,2013-03-05 23:05:00,
2013-03-05 18:10:00,35.4,32.2,29.79,WSW,248,3.8,8.1,88,0.00,,,0.25,VWS V14.01,2013-03-05 23:10:00,
2013-03-05 18:15:00,35.2,32.0,29.79,WNW,292,4.3,8.5,88,0.00,,,0.25,VWS V14.01,2013-03-05 23:15:00,
2013-03-05 18:20:00,35.1,31.9,29.82,West,270,6.3,8.5,88,0.00,,,0.25,VWS V14.01,2013-03-05 23:20:00,
2013-03-05 18:25:00,35.1,32.2,29.82,NW,315,2.9,8.5,89,0.04,,,0.29,VWS V14.01,2013-03-05 23:25:00,
2013-03-05 18:30:00,35.1,32.2,29.82,WSW,248,3.4,8.5,89,0.04,,,0.29,VWS V14.01,2013-03-05 23:30:00,
2013-03-05 18:35:00,35.1,32.2,29.82,West,270,3.6,8.5,89,0.04,,,0.29,VWS V14.01,2013-03-05 23:35:00,
2013-03-05 18:40:00,34.9,32.0,29.82,WNW,292,6.0,8.5,89,0.04,,,0.29,VWS V14.01,2013-03-05 23:40:00,
2013-03-05 18:45:00,34.9,32.2,29.82,WSW,248,3.8,8.5,90,0.04,,,0.29,VWS V14.01,2013-03-05 23:45:00,
2013-03-05 18:50:00,34.9,32.2,29.82,WNW,292,1.6,8.5,90,0.04,,OVC009,0.29,VWS V14.01,2013-03-05 23:50:00,
2013-03-05 18:55:00,34.9,32.2,29.82,West,270,5.4,7.4,90,0.04,,OVC009,0.29,VWS V14.01,2013-03-05 23:55:00,
2013-03-05 19:00:00,34.9,32.2,29.82,WNW,292,5.4,7.4,90,0.04,,OVC009,0.29,VWS V14.01,2013-03-06 00:00:00,
2013-03-05 19:05:00,34.9,32.0,29.85,WNW,292,4.7,10.1,89,0.04,,OVC009,0.29,VWS V14.01,2013-03-06 00:05:00,
2013-03-05 19:10:00,34.9,32.0,29.85,WNW,292,6.0,10.1,89,0.04,,OVC009,0.29,VWS V14.01,2013-03-06 00:10:00,
2013-03-05 19:15:00,34.9,31.7,29.85,West,270,3.6,10.1,88,0.04,,OVC009,0.29,VWS V14.01,2013-03-06 00:15:00,
2013-03-05 19:20:00,34.9,31.7,29.85,West,270,5.6,10.1,88,0.04,,,0.29,VWS V14.01,2013-03-06 00:20:00,
2013-03-05 19:25:00,34.9,31.4,29.85,WNW,292,10.1,10.1,87,0.04,,,0.29,VWS V14.01,2013-03-06 00:25:00,
2013-03-05 19:30:00,34.9,30.5,29.85,NW,315,5.6,17.5,84,0.04,,,0.29,VWS V14.01,2013-03-06 00:30:00,
2013-03-05 19:35:00,34.9,30.0,29.85,WNW,292,3.6,17.5,82,0.04,,,0.29,VWS V14.01,2013-03-06 00:35:00,
2013-03-05 19:40:00,34.9,29.6,29.85,WNW,292,5.4,17.5,81,0.04,,,0.29,VWS V14.01,2013-03-06 00:40:00,
2013-03-05 19:45:00,34.9,29.6,29.85,NW,315,5.6,17.5,81,0.04,,,0.29,VWS V14.01,2013-03-06 00:45:00,
2013-03-05 19:50:00,34.9,29.4,29.85,WNW,292,8.7,17.5,80,0.04,,,0.29,VWS V14.01,2013-03-06 00:50:00,
2013-03-05 19:55:00,34.9,29.0,29.85,WSW,248,4.0,6.5,79,0.00,,,0.29,VWS V14.01,2013-03-06 00:55:00,
2013-03-05 20:00:00,34.9,29.0,29.85,NW,315,4.3,7.6,79,0.00,,,0.29,VWS V14.01,2013-03-06 01:00:00,
2013-03-05 20:05:00,34.9,29.0,29.85,NNW,338,10.7,10.7,79,0.00,,,0.29,VWS V14.01,2013-03-06 01:05:00,
2013-03-05 20:10:00,34.9,29.0,29.85,West,270,7.4,10.7,79,0.00,,,0.29,VWS V14.01,2013-03-06 01:10:00,
2013-03-05 20:15:00,34.9,29.0,29.85,WSW,248,5.6,10.7,79,0.00,,,0.29,VWS V14.01,2013-03-06 01:15:00,
2013-03-05 20:20:00,34.9,29.0,29.85,West,270,5.4,10.7,79,0.00,,,0.29,VWS V14.01,2013-03-06 01:20:00,
2013-03-05 20:25:00,34.9,28.7,29.85,NNW,338,4.9,10.7,78,0.00,,,0.29,VWS V14.01,2013-03-06 01:25:00,
2013-03-05 20:30:00,34.9,28.7,29.85,WNW,292,6.5,10.7,78,0.00,,,0.29,VWS V14.01,2013-03-06 01:30:00,
2013-03-05 20:35:00,34.9,28.1,29.85,WNW,292,5.4,11.0,76,0.00,,,0.29,VWS V14.01,2013-03-06 01:35:00,
2013-03-05 20:40:00,34.9,27.8,29.88,WNW,292,8.5,11.0,75,0.00,,,0.29,VWS V14.01,2013-03-06 01:40:00,
2013-03-05 20:45:00,34.9,27.5,29.88,WNW,292,9.6,11.0,74,0.00,,,0.29,VWS V14.01,2013-03-06 01:45:00,
2013-03-05 20:50:00,34.9,27.1,29.88,WNW,292,4.5,14.1,73,0.00,,,0.29,VWS V14.01,2013-03-06 01:50:00,
2013-03-05 20:55:00,34.7,26.3,29.88,WNW,292,12.1,12.1,71,0.00,,,0.29,VWS V14.01,2013-03-06 01:55:00,
2013-03-05 21:00:00,34.7,25.9,29.88,NW,315,6.0,12.1,70,0.00,,,0.29,VWS V14.01,2013-03-06 02:00:00,
2013-03-05 21:05:00,34.7,26.3,29.88,WSW,248,3.4,12.1,71,0.00,,,0.29,VWS V14.01,2013-03-06 02:05:00,
2013-03-05 21:10:00,34.7,26.3,29.88,WNW,292,5.6,12.1,71,0.00,,,0.29,VWS V14.01,2013-03-06 02:10:00,
2013-03-05 21:15:00,34.5,25.4,29.88,WSW,248,5.8,12.1,69,0.00,,,0.29,VWS V14.01,2013-03-06 02:15:00,
2013-03-05 21:20:00,34.5,25.1,29.88,WNW,292,10.1,12.1,68,0.00,,,0.29,VWS V14.01,2013-03-06 02:20:00,
2013-03-05 21:25:00,34.3,24.5,29.88,WSW,248,4.9,12.1,67,0.00,,,0.29,VWS V14.01,2013-03-06 02:25:00,
2013-03-05 21:30:00,34.3,23.8,29.88,NW,315,10.5,12.1,65,0.00,,,0.29,VWS V14.01,2013-03-06 02:30:00,
2013-03-05 21:35:00,34.3,23.8,29.88,WNW,292,5.6,12.1,65,0.00,,,0.29,VWS V14.01,2013-03-06 02:35:00,
2013-03-05 21:40:00,34.3,24.5,29.88,WSW,248,2.9,12.1,67,0.00,,,0.29,VWS V14.01,2013-03-06 02:40:00,
2013-03-05 21:45:00,34.2,25.1,29.88,WNW,292,5.6,12.1,69,0.00,,,0.29,VWS V14.01,2013-03-06 02:45:00,
2013-03-05 21:50:00,34.0,25.2,29.88,WSW,248,6.3,12.3,70,0.00,,,0.29,VWS V14.01,2013-03-06 02:50:00,
2013-03-05 21:55:00,33.8,24.0,29.88,WNW,292,6.5,10.7,67,0.00,,,0.29,VWS V14.01,2013-03-06 02:55:00,
2013-03-05 22:00:00,33.6,24.2,29.88,WNW,292,7.6,10.7,68,0.00,,,0.29,VWS V14.01,2013-03-06 03:00:00,
2013-03-05 22:05:00,33.6,24.2,29.91,West,270,8.1,10.7,68,0.00,,,0.29,VWS V14.01,2013-03-06 03:05:00,
2013-03-05 22:10:00,33.6,24.2,29.91,WNW,292,4.0,10.7,68,0.00,,,0.29,VWS V14.01,2013-03-06 03:10:00,
2013-03-05 22:15:00,33.6,24.5,29.91,SSW,202,3.6,10.7,69,0.00,,,0.29,VWS V14.01,2013-03-06 03:15:00,
2013-03-05 22:20:00,33.4,24.4,29.91,WSW,248,6.5,10.7,69,0.00,,,0.29,VWS V14.01,2013-03-06 03:20:00,
2013-03-05 22:25:00,33.4,24.4,29.91,WNW,292,4.0,10.7,69,0.00,,,0.29,VWS V14.01,2013-03-06 03:25:00,
2013-03-05 22:30:00,33.4,24.4,29.91,NW,315,5.4,10.7,69,0.00,,,0.29,VWS V14.01,2013-03-06 03:30:00,
2013-03-05 22:35:00,33.3,24.2,29.88,WNW,292,6.3,10.7,69,0.00,,,0.29,VWS V14.01,2013-03-06 03:35:00,
2013-03-05 22:40:00,33.3,24.2,29.88,WSW,248,4.0,14.3,69,0.00,,,0.29,VWS V14.01,2013-03-06 03:40:00,
2013-03-05 22:45:00,33.3,24.2,29.88,West,270,3.4,14.3,69,0.00,,,0.29,VWS V14.01,2013-03-06 03:45:00,
2013-03-05 22:50:00,33.1,24.0,29.91,South,180,6.9,14.3,69,0.00,,,0.29,VWS V14.01,2013-03-06 03:50:00,
2013-03-05 22:55:00,33.1,23.7,29.91,WSW,248,5.8,7.4,68,0.00,,,0.29,VWS V14.01,2013-03-06 03:55:00,
2013-03-05 23:00:00,33.1,24.0,29.91,West,270,5.4,7.4,69,0.00,,,0.29,VWS V14.01,2013-03-06 04:00:00,
2013-03-05 23:05:00,33.1,24.0,29.88,SSW,202,5.6,8.1,69,0.00,,,0.29,VWS V14.01,2013-03-06 04:05:00,
2013-03-05 23:10:00,32.9,23.9,29.88,West,270,7.8,8.1,69,0.00,,,0.29,VWS V14.01,2013-03-06 04:10:00,
2013-03-05 23:15:00,32.9,24.2,29.88,WSW,248,5.8,8.1,70,0.00,,,0.29,VWS V14.01,2013-03-06 04:15:00,
2013-03-05 23:20:00,32.7,24.0,29.88,WNW,292,6.5,8.1,70,0.00,,,0.29,VWS V14.01,2013-03-06 04:20:00,
2013-03-05 23:25:00,32.7,24.4,29.88,West,270,2.7,8.7,71,0.00,,,0.29,VWS V14.01,2013-03-06 04:25:00,
2013-03-05 23:30:00,32.7,24.4,29.88,WNW,292,5.4,8.7,71,0.00,,,0.29,VWS V14.01,2013-03-06 04:30:00,
2013-03-05 23:35:00,32.7,24.0,29.91,WSW,248,5.8,8.7,70,0.00,,,0.29,VWS V14.01,2013-03-06 04:35:00,
2013-03-05 23:40:00,32.7,24.4,29.91,WSW,248,3.6,8.7,71,0.00,,,0.29,VWS V14.01,2013-03-06 04:40:00,
2013-03-05 23:45:00,32.7,24.7,29.91,SW,225,7.6,8.7,72,0.00,,,0.29,VWS V14.01,2013-03-06 04:45:00,
2013-03-05 23:50:00,32.7,24.7,29.88,WNW,292,4.3,8.7,72,0.00,,,0.29,VWS V14.01,2013-03-06 04:50:00,
2013-03-05 23:54:00,32.5,24.9,29.88,WNW,292,10.7,10.7,73,0.00,,,0.00,VWS V14.01,2013-03-06 04:54:00,
2013-03-05 23:59:00,32.5,24.9,29.88,WNW,292,6.3,10.7,73,0.00,,,0.00,VWS V14.01,2013-03-06 04:59:00,